| time (UTC) | temp F | wind direction | speed MPH | gust MPH | rain 1hr in | rain 24hr in | rain mn in | humidity % | barometer mb |
| 20260505093943 | 71 | 102 | 1.0 | 5.0 | 0.00 | 0.00 | 0.00 | 94 | 1009.8 |
| 20260505093440 | 71 | 105 | 1.0 | 3.0 | 0.00 | 0.00 | 0.00 | 94 | 1010.0 |
| 20260505092937 | 71 | 71 | 1.0 | 1.0 | 0.00 | 0.00 | 0.00 | 94 | 1009.9 |
| 20260505092435 | 71 | 86 | 1.0 | 1.0 | 0.00 | 0.00 | 0.00 | 94 | 1009.7 |
| 20260505091932 | 71 | 168 | 2.0 | 2.0 | 0.00 | 0.00 | 0.00 | 95 | 1010.0 |
| 20260505091430 | 71 | 78 | 0.0 | 1.0 | 0.00 | 0.00 | 0.00 | 95 | 1010.1 |
| 20260505090928 | 71 | 87 | 0.0 | 0.0 | 0.00 | 0.00 | 0.00 | 95 | 1010.1 |
| 20260505090426 | 71 | 66 | 0.0 | 0.0 | 0.00 | 0.00 | 0.00 | 95 | 1010.2 |
| 20260505085922 | 70 | 76 | 0.0 | 2.0 | 0.00 | 0.00 | 0.00 | 95 | 1010.0 |
| 20260505085420 | 70 | 87 | 2.0 | 2.0 | 0.00 | 0.00 | 0.00 | 95 | 1009.8 |
| 20260505084918 | 70 | 79 | 0.0 | 2.0 | 0.00 | 0.00 | 0.00 | 95 | 1009.9 |
| 20260505084416 | 70 | 69 | 0.0 | 3.0 | 0.00 | 0.00 | 0.00 | 95 | 1010.0 |
| 20260505083914 | 70 | 77 | 0.0 | 1.0 | 0.00 | 0.00 | 0.00 | 95 | 1010.0 |
| 20260505083411 | 70 | 78 | 0.0 | 1.0 | 0.00 | 0.00 | 0.00 | 95 | 1009.8 |
| 20260505082907 | 69 | 103 | 1.0 | 2.0 | 0.00 | 0.00 | 0.00 | 96 | 1009.9 |
| 20260505082403 | 69 | 74 | 0.0 | 1.0 | 0.00 | 0.00 | 0.00 | 96 | 1010.0 |
| 20260505081900 | 69 | 274 | 1.0 | 2.0 | 0.00 | 0.00 | 0.00 | 97 | 1009.9 |
| 20260505081351 | 69 | 74 | 0.0 | 0.0 | 0.00 | 0.00 | 0.00 | 97 | 1010.1 |
| 20260505080848 | 68 | 70 | 0.0 | 1.0 | 0.00 | 0.00 | 0.00 | 97 | 1010.0 |
| 20260505080344 | 68 | 80 | 1.0 | 3.0 | 0.00 | 0.00 | 0.00 | 97 | 1010.2 |
| 20260505075839 | 68 | 61 | 0.0 | 1.0 | 0.00 | 0.00 | 0.00 | 97 | 1010.3 |
| 20260505075336 | 68 | 58 | 0.0 | 0.0 | 0.00 | 0.00 | 0.00 | 97 | 1010.1 |
| 20260505074833 | 68 | 79 | 0.0 | 1.0 | 0.00 | 0.00 | 0.00 | 97 | 1010.1 |
| 20260505074331 | 68 | 76 | 0.0 | 1.0 | 0.00 | 0.00 | 0.00 | 97 | 1010.2 |
| 20260505073828 | 68 | 70 | 0.0 | 0.0 | 0.00 | 0.00 | 0.00 | 97 | 1010.2 |
| 20260505073326 | 68 | 68 | 0.0 | 0.0 | 0.00 | 0.00 | 0.00 | 96 | 1010.4 |
| 20260505072822 | 68 | 83 | 1.0 | 1.0 | 0.00 | 0.00 | 0.00 | 96 | 1010.5 |
| 20260505072319 | 68 | 83 | 0.0 | 1.0 | 0.00 | 0.00 | 0.00 | 96 | 1010.4 |
| 20260505071814 | 68 | 217 | 2.0 | 3.0 | 0.00 | 0.00 | 0.00 | 96 | 1010.3 |
| 20260505071311 | 68 | 62 | 0.0 | 1.0 | 0.00 | 0.00 | 0.00 | 96 | 1010.3 |
| 20260505070809 | 68 | 167 | 1.0 | 3.0 | 0.00 | 0.00 | 0.00 | 96 | 1010.4 |
| 20260505070305 | 68 | 79 | 0.0 | 1.0 | 0.00 | 0.00 | 0.00 | 96 | 1010.5 |
| 20260505065800 | 68 | 61 | 0.0 | 2.0 | 0.00 | 0.00 | 0.00 | 95 | 1010.7 |
| 20260505065258 | 68 | 66 | 1.0 | 1.0 | 0.00 | 0.00 | 0.00 | 95 | 1010.8 |
| 20260505064755 | 68 | 107 | 0.0 | 0.0 | 0.00 | 0.00 | 0.00 | 95 | 1010.8 |
| 20260505064252 | 68 | 65 | 0.0 | 1.0 | 0.00 | 0.00 | 0.00 | 95 | 1010.9 |
| 20260505063749 | 68 | 154 | 1.0 | 2.0 | 0.00 | 0.00 | 0.00 | 95 | 1010.8 |
| 20260505063241 | 69 | 53 | 0.0 | 1.0 | 0.00 | 0.00 | 0.00 | 95 | 1010.9 |
| 20260505062737 | 69 | 76 | 1.0 | 2.0 | 0.00 | 0.00 | 0.00 | 94 | 1010.9 |
| 20260505062235 | 69 | 77 | 1.0 | 2.0 | 0.00 | 0.00 | 0.00 | 94 | 1011.3 |
| 20260505061731 | 69 | 102 | 1.0 | 3.0 | 0.00 | 0.00 | 0.00 | 94 | 1011.1 |
| 20260505061229 | 69 | 75 | 1.0 | 2.0 | 0.00 | 0.00 | 0.00 | 94 | 1011.2 |
| 20260505060726 | 69 | 107 | 1.0 | 1.0 | 0.00 | 0.00 | 0.00 | 94 | 1011.2 |
| 20260505060224 | 69 | 71 | 0.0 | 2.0 | 0.00 | 0.00 | 0.00 | 94 | 1011.1 |
| 20260505055718 | 69 | 208 | 2.0 | 3.0 | 0.00 | 0.00 | 0.00 | 94 | 1011.0 |
| 20260505055215 | 69 | 76 | 0.0 | 1.0 | 0.00 | 0.00 | 0.00 | 93 | 1011.1 |
| 20260505054713 | 69 | 138 | 2.0 | 3.0 | 0.00 | 0.00 | 0.00 | 93 | 1011.4 |
| 20260505054210 | 69 | 88 | 1.0 | 1.0 | 0.00 | 0.00 | 0.00 | 93 | 1011.2 |
| 20260505053709 | 69 | 123 | 2.0 | 2.0 | 0.00 | 0.00 | 0.00 | 93 | 1011.4 |
| 20260505053204 | 69 | 173 | 2.0 | 2.0 | 0.00 | 0.00 | 0.00 | 93 | 1011.3 |
| 20260505052701 | 69 | 75 | 0.0 | 1.0 | 0.00 | 0.00 | 0.00 | 93 | 1011.3 |
| 20260505052153 | 69 | 92 | 1.0 | 3.0 | 0.00 | 0.00 | 0.00 | 93 | 1011.3 |
| 20260505051650 | 69 | 76 | 1.0 | 1.0 | 0.00 | 0.00 | 0.00 | 93 | 1011.3 |
| 20260505051148 | 69 | 82 | 0.0 | 2.0 | 0.00 | 0.00 | 0.00 | 93 | 1011.0 |
| 20260505050645 | 69 | 53 | 1.0 | 1.0 | 0.00 | 0.00 | 0.00 | 93 | 1011.3 |
| 20260505050143 | 68 | 66 | 0.0 | 2.0 | 0.00 | 0.00 | 0.00 | 93 | 1011.4 |
| 20260505041613 | 69 | 96 | 1.0 | 3.0 | 0.00 | 0.00 | 0.00 | 91 | 1011.8 |
| 20260505041110 | 69 | 102 | 2.0 | 5.0 | 0.00 | 0.00 | 0.00 | 92 | 1011.6 |
| 20260505040608 | 69 | 73 | 0.0 | 1.0 | 0.00 | 0.00 | 0.00 | 91 | 1011.9 |
| 20260505040105 | 69 | 87 | 1.0 | 2.0 | 0.00 | 0.00 | 0.00 | 91 | 1012.2 |
| 20260505035601 | 69 | 96 | 2.0 | 3.0 | 0.00 | 0.00 | 0.00 | 91 | 1012.2 |
| 20260505035057 | 69 | 67 | 0.0 | 2.0 | 0.00 | 0.00 | 0.00 | 91 | 1012.1 |
| 20260505034554 | 69 | 153 | 3.0 | 6.0 | 0.00 | 0.00 | 0.00 | 91 | 1012.2 |
| 20260505034051 | 69 | 77 | 0.0 | 1.0 | 0.00 | 0.00 | 0.00 | 91 | 1012.0 |
| 20260505033548 | 69 | 74 | 0.0 | 2.0 | 0.00 | 0.00 | 0.00 | 91 | 1012.0 |
| 20260505033046 | 69 | 150 | 2.0 | 2.0 | 0.00 | 0.00 | 0.00 | 91 | 1011.9 |
| 20260505032544 | 69 | 151 | 3.0 | 3.0 | 0.00 | 0.00 | 0.00 | 91 | 1011.9 |
| 20260505032040 | 69 | 147 | 3.0 | 5.0 | 0.00 | 0.00 | 0.00 | 90 | 1011.9 |
| 20260505031537 | 69 | 55 | 0.0 | 1.0 | 0.00 | 0.00 | 0.00 | 90 | 1012.0 |
| 20260505031033 | 69 | 69 | 0.0 | 0.0 | 0.00 | 0.00 | 0.00 | 90 | 1012.0 |
| 20260505030531 | 70 | 82 | 1.0 | 3.0 | 0.00 | 0.00 | 0.00 | 90 | 1012.0 |
| 20260505030026 | 70 | 78 | 2.0 | 3.0 | 0.00 | 0.00 | 0.00 | 89 | 1011.9 |
| 20260505025522 | 70 | 85 | 1.0 | 3.0 | 0.00 | 0.00 | 0.00 | 89 | 1012.2 |
| 20260505025022 | 70 | 86 | 1.0 | 3.0 | 0.00 | 0.00 | 0.00 | 89 | 1012.0 |
| 20260505024518 | 70 | 43 | 0.0 | 6.0 | 0.00 | 0.00 | 0.00 | 88 | 1011.9 |
| 20260505024015 | 70 | 61 | 0.0 | 6.0 | 0.00 | 0.00 | 0.00 | 88 | 1011.9 |
| 20260505023512 | 70 | 73 | 1.0 | 2.0 | 0.00 | 0.00 | 0.00 | 88 | 1011.7 |
| 20260505023010 | 70 | 111 | 1.0 | 3.0 | 0.00 | 0.00 | 0.00 | 88 | 1011.7 |
| 20260505022507 | 70 | 105 | 1.0 | 3.0 | 0.00 | 0.00 | 0.00 | 87 | 1011.9 |
| 20260505022004 | 70 | 299 | 1.0 | 3.0 | 0.00 | 0.00 | 0.00 | 87 | 1011.7 |
| 20260505021501 | 70 | 3 | 1.0 | 3.0 | 0.00 | 0.00 | 0.00 | 87 | 1011.8 |
| 20260505020956 | 70 | 56 | 0.0 | 2.0 | 0.00 | 0.00 | 0.00 | 87 | 1011.6 |
| 20260505020452 | 70 | 96 | 2.0 | 2.0 | 0.00 | 0.00 | 0.00 | 86 | 1011.6 |
| 20260505015949 | 70 | 46 | 1.0 | 2.0 | 0.00 | 0.00 | 0.00 | 86 | 1011.5 |
| 20260505015446 | 71 | 95 | 0.0 | 3.0 | 0.00 | 0.00 | 0.00 | 86 | 1011.7 |
| 20260505014943 | 71 | 131 | 1.0 | 2.0 | 0.00 | 0.00 | 0.00 | 85 | 1011.5 |
| 20260505014440 | 71 | 121 | 1.0 | 2.0 | 0.00 | 0.00 | 0.00 | 85 | 1011.4 |
| 20260505013937 | 71 | 187 | 3.0 | 3.0 | 0.00 | 0.00 | 0.00 | 85 | 1011.4 |
| 20260505013434 | 71 | 101 | 2.0 | 5.0 | 0.00 | 0.00 | 0.00 | 84 | 1011.4 |
| 20260505012932 | 71 | 68 | 0.0 | 2.0 | 0.00 | 0.00 | 0.00 | 84 | 1011.3 |
| 20260505012430 | 71 | 48 | 1.0 | 2.0 | 0.00 | 0.00 | 0.00 | 83 | 1011.5 |
| 20260505011926 | 72 | 167 | 3.0 | 6.0 | 0.00 | 0.00 | 0.00 | 83 | 1011.6 |
| 20260505011422 | 72 | 167 | 0.0 | 2.0 | 0.00 | 0.00 | 0.00 | 82 | 1011.5 |
| 20260505010919 | 72 | 116 | 1.0 | 5.0 | 0.00 | 0.00 | 0.00 | 82 | 1011.4 |
| 20260505010415 | 72 | 70 | 3.0 | 5.0 | 0.00 | 0.00 | 0.00 | 81 | 1011.4 |
| 20260505005911 | 72 | 67 | 1.0 | 2.0 | 0.00 | 0.00 | 0.00 | 81 | 1011.4 |
| 20260505005408 | 73 | 81 | 1.0 | 5.0 | 0.00 | 0.00 | 0.00 | 80 | 1011.5 |
| 20260505004905 | 73 | 270 | 1.0 | 3.0 | 0.00 | 0.00 | 0.00 | 79 | 1011.6 |
| 20260505004402 | 73 | 82 | 1.0 | 6.0 | 0.00 | 0.00 | 0.00 | 79 | 1011.7 |
| 20260505003859 | 74 | 39 | 3.0 | 5.0 | 0.00 | 0.00 | 0.00 | 78 | 1011.5 |
| 20260505003356 | 74 | 203 | 2.0 | 7.0 | 0.00 | 0.00 | 0.00 | 77 | 1011.6 |
| 20260505002852 | 75 | 151 | 3.0 | 3.0 | 0.00 | 0.00 | 0.00 | 76 | 1011.5 |
| 20260505002349 | 75 | 96 | 1.0 | 5.0 | 0.00 | 0.00 | 0.00 | 76 | 1011.7 |
| 20260505001847 | 75 | 190 | 4.0 | 8.0 | 0.00 | 0.00 | 0.00 | 75 | 1011.5 |
| 20260505001344 | 75 | 67 | 2.0 | 5.0 | 0.00 | 0.00 | 0.00 | 74 | 1011.6 |
| 20260505000841 | 75 | 34 | 1.0 | 5.0 | 0.00 | 0.00 | 0.00 | 73 | 1011.5 |
| 20260505000339 | 75 | 64 | 2.0 | 7.0 | 0.00 | 0.00 | 0.00 | 74 | 1011.6 |
| 20260504235835 | 75 | 99 | 1.0 | 3.0 | 0.00 | 0.00 | 0.00 | 74 | 1011.5 |
| 20260504235333 | 75 | 94 | 1.0 | 2.0 | 0.00 | 0.00 | 0.00 | 74 | 1011.8 |
| 20260504234829 | 75 | 203 | 3.0 | 6.0 | 0.00 | 0.00 | 0.00 | 74 | 1012.0 |
| 20260504234327 | 75 | 82 | 1.0 | 2.0 | 0.00 | 0.00 | 0.00 | 73 | 1012.1 |
| 20260504233823 | 76 | 191 | 3.0 | 5.0 | 0.00 | 0.00 | 0.00 | 72 | 1012.0 |
| 20260504233319 | 77 | 130 | 1.0 | 5.0 | 0.00 | 0.00 | 0.00 | 70 | 1012.3 |
| 20260504232816 | 77 | 184 | 5.0 | 7.0 | 0.00 | 0.00 | 0.00 | 70 | 1012.1 |
| 20260504232313 | 77 | 237 | 2.0 | 9.0 | 0.00 | 0.00 | 0.00 | 70 | 1012.2 |
| 20260504231810 | 77 | 77 | 1.0 | 5.0 | 0.00 | 0.00 | 0.00 | 70 | 1012.2 |
| 20260504231306 | 77 | 66 | 2.0 | 3.0 | 0.00 | 0.00 | 0.00 | 69 | 1012.2 |
| 20260504230802 | 77 | 172 | 3.0 | 3.0 | 0.00 | 0.00 | 0.00 | 68 | 1012.2 |
| 20260504230300 | 78 | 115 | 2.0 | 8.0 | 0.00 | 0.00 | 0.00 | 69 | 1012.2 |
| 20260504225759 | 78 | 85 | 1.0 | 2.0 | 0.00 | 0.00 | 0.00 | 68 | 1012.4 |
| 20260504225255 | 77 | 50 | 2.0 | 8.0 | 0.00 | 0.00 | 0.00 | 69 | 1012.3 |
| 20260504224752 | 78 | 292 | 4.0 | 9.0 | 0.00 | 0.00 | 0.00 | 68 | 1012.3 |
| 20260504224249 | 78 | 81 | 2.0 | 7.0 | 0.00 | 0.00 | 0.00 | 68 | 1012.4 |
| 20260504223746 | 78 | 131 | 1.0 | 3.0 | 0.00 | 0.00 | 0.00 | 68 | 1012.5 |
| 20260504223241 | 77 | 58 | 1.0 | 5.0 | 0.00 | 0.00 | 0.00 | 70 | 1012.6 |
| 20260504222738 | 77 | 165 | 5.0 | 7.0 | 0.00 | 0.00 | 0.00 | 69 | 1012.8 |
| 20260504222235 | 77 | 282 | 1.0 | 5.0 | 0.00 | 0.00 | 0.00 | 69 | 1012.6 |
| 20260504221733 | 78 | 148 | 2.0 | 10.0 | 0.00 | 0.00 | 0.00 | 68 | 1012.6 |
| 20260504221229 | 78 | 226 | 2.0 | 5.0 | 0.00 | 0.00 | 0.00 | 69 | 1012.4 |
| 20260504220725 | 77 | 56 | 0.0 | 2.0 | 0.00 | 0.00 | 0.00 | 68 | 1012.5 |
| 20260504220218 | 78 | 148 | 6.0 | 7.0 | 0.00 | 0.00 | 0.00 | 67 | 1012.6 |
| 20260504215714 | 79 | 203 | 3.0 | 7.0 | 0.00 | 0.00 | 0.00 | 67 | 1012.9 |
| 20260504215212 | 78 | 247 | 1.0 | 7.0 | 0.00 | 0.00 | 0.00 | 67 | 1012.9 |
| 20260504214707 | 78 | 85 | 2.0 | 6.0 | 0.00 | 0.00 | 0.00 | 68 | 1012.9 |
| 20260504214204 | 78 | 106 | 1.0 | 1.0 | 0.00 | 0.00 | 0.00 | 67 | 1013.1 |
| 20260504213701 | 79 | 48 | 2.0 | 8.0 | 0.00 | 0.00 | 0.00 | 66 | 1013.0 |
| 20260504213157 | 79 | 207 | 4.0 | 5.0 | 0.00 | 0.00 | 0.00 | 66 | 1013.0 |
| 20260504212654 | 78 | 189 | 4.0 | 7.0 | 0.00 | 0.00 | 0.00 | 67 | 1013.1 |
| 20260504212150 | 78 | 186 | 5.0 | 8.0 | 0.00 | 0.00 | 0.00 | 67 | 1013.0 |
| 20260504211648 | 78 | 68 | 1.0 | 7.0 | 0.00 | 0.00 | 0.00 | 67 | 1013.1 |
| 20260504211144 | 79 | 174 | 3.0 | 9.0 | 0.00 | 0.00 | 0.00 | 66 | 1013.1 |
| 20260504210642 | 79 | 114 | 2.0 | 7.0 | 0.00 | 0.00 | 0.00 | 65 | 1013.2 |
| 20260504210138 | 79 | 131 | 4.0 | 10.0 | 0.00 | 0.00 | 0.00 | 66 | 1013.3 |
| 20260504205636 | 80 | 74 | 1.0 | 3.0 | 0.00 | 0.00 | 0.00 | 64 | 1013.4 |
| 20260504205133 | 80 | 279 | 3.0 | 3.0 | 0.00 | 0.00 | 0.00 | 65 | 1013.6 |
| 20260504204631 | 79 | 218 | 1.0 | 5.0 | 0.00 | 0.00 | 0.00 | 65 | 1013.6 |
| 20260504204130 | 80 | 101 | 3.0 | 7.0 | 0.00 | 0.00 | 0.00 | 63 | 1013.5 |
| 20260504203628 | 80 | 211 | 3.0 | 7.0 | 0.00 | 0.00 | 0.00 | 63 | 1013.5 |
| 20260504203125 | 80 | 190 | 2.0 | 5.0 | 0.00 | 0.00 | 0.00 | 65 | 1013.6 |
| 20260504202620 | 79 | 87 | 1.0 | 6.0 | 0.00 | 0.00 | 0.00 | 65 | 1013.5 |
| 20260504202117 | 79 | 186 | 6.0 | 8.0 | 0.00 | 0.00 | 0.00 | 64 | 1013.8 |
| 20260504201614 | 80 | 253 | 4.0 | 6.0 | 0.00 | 0.00 | 0.00 | 64 | 1013.8 |
| 20260504201112 | 80 | 252 | 2.0 | 8.0 | 0.00 | 0.00 | 0.00 | 66 | 1014.0 |
| 20260504200609 | 80 | 259 | 7.0 | 8.0 | 0.00 | 0.00 | 0.00 | 64 | 1014.1 |
| 20260504200105 | 79 | 227 | 3.0 | 6.0 | 0.00 | 0.00 | 0.00 | 64 | 1014.2 |
| 20260504195601 | 79 | 281 | 3.0 | 8.0 | 0.00 | 0.00 | 0.00 | 65 | 1014.2 |
| 20260504195057 | 79 | 127 | 3.0 | 5.0 | 0.00 | 0.00 | 0.00 | 66 | 1014.3 |
| 20260504194554 | 78 | 162 | 2.0 | 3.0 | 0.00 | 0.00 | 0.00 | 66 | 1014.2 |
| 20260504194050 | 78 | 219 | 3.0 | 6.0 | 0.00 | 0.00 | 0.00 | 65 | 1014.6 |
| 20260504193546 | 80 | 223 | 4.0 | 7.0 | 0.00 | 0.00 | 0.00 | 63 | 1014.7 |
| 20260504193045 | 81 | 209 | 5.0 | 7.0 | 0.00 | 0.00 | 0.00 | 62 | 1014.9 |
| 20260504192543 | 80 | 101 | 1.0 | 5.0 | 0.00 | 0.00 | 0.00 | 63 | 1014.8 |
| 20260504192041 | 80 | 52 | 3.0 | 6.0 | 0.00 | 0.00 | 0.00 | 62 | 1014.5 |
| 20260504191538 | 78 | 177 | 3.0 | 9.0 | 0.00 | 0.00 | 0.00 | 64 | 1014.8 |
| 20260504191034 | 80 | 215 | 5.0 | 6.0 | 0.00 | 0.00 | 0.00 | 62 | 1014.8 |
| 20260504190531 | 80 | 90 | 1.0 | 8.0 | 0.00 | 0.00 | 0.00 | 62 | 1014.7 |
| 20260504190027 | 80 | 212 | 4.0 | 8.0 | 0.00 | 0.00 | 0.00 | 62 | 1014.9 |
| 20260504185524 | 79 | 76 | 1.0 | 8.0 | 0.00 | 0.00 | 0.00 | 66 | 1014.9 |
| 20260504185021 | 78 | 236 | 1.0 | 3.0 | 0.00 | 0.00 | 0.00 | 65 | 1015.1 |
| 20260504184516 | 80 | 253 | 4.0 | 8.0 | 0.00 | 0.00 | 0.00 | 63 | 1015.1 |
| 20260504184012 | 79 | 4 | 2.0 | 7.0 | 0.00 | 0.00 | 0.00 | 63 | 1015.1 |
| 20260504183509 | 78 | 123 | 2.0 | 5.0 | 0.00 | 0.00 | 0.00 | 67 | 1015.2 |
| 20260504183008 | 80 | 195 | 6.0 | 7.0 | 0.00 | 0.00 | 0.00 | 64 | 1015.1 |
| 20260504182503 | 79 | 248 | 2.0 | 7.0 | 0.00 | 0.00 | 0.00 | 65 | 1015.2 |
| 20260504182001 | 78 | 224 | 1.0 | 6.0 | 0.00 | 0.00 | 0.00 | 66 | 1015.4 |
| 20260504181458 | 79 | 5 | 3.0 | 6.0 | 0.00 | 0.00 | 0.00 | 65 | 1015.5 |
| 20260504180956 | 80 | 169 | 4.0 | 5.0 | 0.00 | 0.00 | 0.00 | 65 | 1015.6 |
| 20260504180455 | 79 | 223 | 3.0 | 3.0 | 0.00 | 0.00 | 0.00 | 65 | 1015.5 |
| 20260504175953 | 78 | 225 | 2.0 | 5.0 | 0.00 | 0.00 | 0.00 | 65 | 1015.5 |
| 20260504175450 | 78 | 192 | 5.0 | 10.0 | 0.00 | 0.00 | 0.00 | 66 | 1015.7 |
| 20260504174947 | 78 | 118 | 5.0 | 6.0 | 0.00 | 0.00 | 0.00 | 64 | 1015.5 |
| 20260504174445 | 78 | 124 | 4.0 | 11.0 | 0.00 | 0.00 | 0.00 | 65 | 1015.7 |
| 20260504173942 | 78 | 173 | 3.0 | 6.0 | 0.00 | 0.00 | 0.00 | 66 | 1015.9 |
| 20260504173438 | 77 | 112 | 2.0 | 5.0 | 0.00 | 0.00 | 0.00 | 66 | 1015.8 |
| 20260504172936 | 79 | 305 | 5.0 | 7.0 | 0.00 | 0.00 | 0.00 | 63 | 1015.6 |
| 20260504172431 | 78 | 206 | 3.0 | 13.0 | 0.00 | 0.00 | 0.00 | 63 | 1015.9 |
| 20260504171928 | 77 | 168 | 2.0 | 9.0 | 0.00 | 0.00 | 0.00 | 68 | 1015.8 |
| 20260504171426 | 77 | 244 | 5.0 | 7.0 | 0.00 | 0.00 | 0.00 | 66 | 1015.8 |
| 20260504170922 | 78 | 247 | 3.0 | 10.0 | 0.00 | 0.00 | 0.00 | 65 | 1015.7 |
| 20260504170419 | 78 | 80 | 3.0 | 3.0 | 0.00 | 0.00 | 0.00 | 66 | 1015.9 |
| 20260504160338 | 77 | 214 | 3.0 | 10.0 | 0.00 | 0.00 | 0.00 | 67 | 1016.6 |
| 20260504150802 | 76 | 71 | 2.0 | 9.0 | 0.00 | 0.00 | 0.00 | 68 | 1016.6 |
| 20260504150259 | 76 | 197 | 2.0 | 2.0 | 0.00 | 0.00 | 0.00 | 70 | 1016.6 |
| 20260504141229 | 73 | 70 | 1.0 | 6.0 | 0.00 | 0.00 | 0.00 | 71 | 1016.7 |
| 20260504140725 | 73 | 90 | 0.0 | 1.0 | 0.00 | 0.00 | 0.00 | 69 | 1016.6 |
| 20260504140221 | 72 | 59 | 0.0 | 3.0 | 0.00 | 0.00 | 0.00 | 70 | 1016.8 |
| 20260504130644 | 67 | 46 | 0.0 | 1.0 | 0.00 | 0.00 | 0.00 | 80 | 1016.7 |
| 20260504130140 | 66 | 75 | 0.0 | 0.0 | 0.00 | 0.00 | 0.00 | 81 | 1016.6 |
| 20260504120104 | 57 | 88 | 0.0 | 0.0 | 0.00 | 0.00 | 0.00 | 96 | 1016.4 |
| 20260504110531 | 55 | 89 | 0.0 | 0.0 | 0.00 | 0.00 | 0.00 | 96 | 1016.3 |
| 20260504100454 | 57 | 89 | 0.0 | 0.0 | 0.00 | 0.00 | 0.00 | 92 | 1016.5 |